Mobirise responsive web design software

REALTIME WEATHER NETWORK

Station: ALVERCA
Elevation: 11 ft
Latest report: --

METAR
Station not yet available

Station: AGUEDA (CASARÃO)
Elevation: 304 ft
Latest report: --

METAR
Station not yet available

Station: ALENTEJO AIR PARK
Elevation: 422 ft
Latest report: --

METAR
Station not yet available

Station: ALQUEIDÃO
Elevation: 10 ft
Latest report: --

METAR
Station not yet available

Station: AMENDOEIRA
Elevation: 636 ft
Latest report: --

METAR
Station not yet available

Station: ATOUGUIA DA BALEIA
Elevation: 30 ft
Latest report: --

METAR
Station not yet available

Station: AZAMBUJA
Elevation: 15 ft
Latest report: --

METAR
Station not yet available

Station: BEJA
Elevation: 636 ft
Latest report: NOAA

METAR
LPBJ 162200Z 02003KT CAVOK 06/02 Q1026

TAF
LPBJ 161705Z 1618/1718 03010KT CAVOK

Station: BEJA CIVIL
Elevation: 617 ft
Latest report: --

METAR
Station not yet available

Station: BENAVENTE
Elevation: 100 ft
Latest report: 2017-12-16 16:41:38Z

METAR
BENAV 161640Z 36004KT 13/09 Q1022

Station: BRAGA
Elevation: 243 ft
Latest report: --

METAR
Station not yet available

Station: BRAGANÇA
Elevation: 2278 ft
Latest report: 2017-12-16 22:11:53Z

METAR
LPBG 162210Z 00000KT 01/M01 Q1023

Station: CABECEIRAS DE BASTO
Elevation: 2411 ft
Latest report: --

METAR
Station not yet available

Station: CASCAIS
Elevation: 326 ft
Latest report: NOAA

METAR
LPCS 161900Z 01010KT CAVOK 10/04 Q1026

Station: CASTELO BRANCO
Elevation: 1251 ft
Latest report: --

METAR
Station not yet available

Station: CASTRO VERDE (HERDADE DA ZAMBUJEIRA)
Elevation: 732 ft
Latest report: --

METAR
Station not yet available

Station: CERVAL
Elevation: 141 ft
Latest report: --

METAR
Station not yet available

Station: CHAVES
Elevation: 1195 ft
Latest report: --

METAR
Station not yet available

Station: ESPINHO
Elevation: 13 ft
Latest report: --

METAR
Station not yet available

Station: ÉVORA
Elevation: 807 ft
Latest report: --

METAR
Station not yet available

Station: FARO
Elevation: 24 ft
Latest report: NOAA

METAR
LPFR 162200Z 03012KT CAVOK 12/03 Q1024

TAF
LPFR 161700Z 1618/1718 01007KT CAVOK
BECMG 1621/1624 04010KT

Station: FERREIRA DO ALENTEJO
Elevation: 459 ft
Latest report: --

METAR
Station not yet available

Station: FERREIRA DO ZÊZERE (VALADAS)
Elevation: 1080 ft
Latest report: --

METAR
Station not yet available

Station: FIGUEIRA DOS CAVALEIROS
Elevation: 262 ft
Latest report: --

METAR
Station not yet available

Station: LAGOS
Elevation: 15 ft
Latest report: --

METAR
Station not yet available

Station: LAMEIRA
Elevation: 623 ft
Latest report: --

METAR
Station not yet available

Station: LAÚNDOS
Elevation: 262 ft
Latest report: --

METAR
Station not yet available

Station: LEIRIA
Elevation: 139 ft
Latest report: --

METAR
Station not yet available

Station: LISBOA
Elevation: 374 ft
Latest report: NOAA

METAR
LPPT 162200Z 36008KT CAVOK 09/04 Q1027

TAF
LPPT 161700Z 1618/1724 35008KT CAVOK
BECMG 1700/1702 03008KT
BECMG 1716/1718 35008KT

Station: LOUSÃ
Elevation: 654 ft
Latest report: --

METAR
Station not yet available

Station: VILAR DE LUZ
Elevation: 762 ft
Latest report: 2017-12-16 22:09:20Z

METAR
LPVL 162205Z 05008KT 08/03 Q1026

Station: MIRANDELA
Elevation: 1322 ft
Latest report: 2017-12-10 10:01:36Z

METAR
UNDER MAINTENANCE, CAM IS ONLINE

Station: MOGADOURO
Elevation: 2344 ft
Latest report: 2017-12-15 16:37:22Z

METAR
LPMU 151635Z 25033KT 07/01 Q1011

Station: MONFORTE
Elevation: 900 ft
Latest report: --

METAR
Station not yet available

Station: PALMA
Elevation: 281 ft
Latest report: --

METAR
Station not yet available

Station: PEGÕES (HERDADE DO PONTAL)
Elevation: 295 ft
Latest report: --

METAR
Station not yet available

Station: PONTE DE SÔR
Elevation: 390 ft
Latest report: --

METAR
Station not yet available

Station: POMBAL (CASALINHO)
Elevation: 250 ft
Latest report: --

METAR
Station not yet available

Station: PORTIMÃO
Elevation: 4 ft
Latest report: --

METAR
Station not yet available

Station: PORTO
Elevation: 227 ft
Latest report: NOAA

METAR
LPPR 162200Z 04006KT 360V070 CAVOK 05/02 Q1029

TAF
LPPR 161700Z 1618/1718 34007KT CAVOK
BECMG 1619/1621 03005KT
BECMG 1701/1704 09005KT
BECMG 1712/1715 35010KT

Station: PROENÇA-A-NOVA
Elevation: 407 ft
Latest report: --

METAR
Station not yet available

Station: REGUENGOS (CAMPINHO)
Elevation: 630 ft
Latest report: --

METAR
Station not yet available

Station: SABUGAL (CABEÇO DA VACA)
Elevation: 3117 ft
Latest report: --

METAR
Station not yet available

Station: SANTA CRUZ
Elevation: 161 ft
Latest report: --

METAR
Station not yet available

Station: SANTARÉM
Elevation: 30 ft
Latest report: --

METAR
Station not yet available

Station: SEIA
Elevation: 1445 ft
Latest report: --

METAR
Station not yet available

Station: TOJEIRA
Elevation: 330 ft
Latest report: --

METAR
Station not yet available

Station: TOMAR (VALDONAS)
Elevation: 253 ft
Latest report: --

METAR
Station not yet available

Station: VILA REAL
Elevation: 1832 ft
Latest report: --

METAR
Station not yet available

Station: VISEU
Elevation: 2061 ft
Latest report: --

METAR
Station not yet available

Station: LEZÍRIA
Elevation: 10 ft
Latest report: --

METAR
Station not yet available

Station: FAIAS
Elevation: 134 ft
Latest report: --

METAR
Station not yet available

Station: COIMBRA
Elevation: 570 ft
Latest report: --

METAR
Station not yet available

Station: GARROCHEIRA
Elevation: 62 ft
Latest report: 2017-12-16 22:12:13Z

METAR
GARROCHEIRA 162210Z 07004KT 07/07 Q1026

ABOUT US

Our main objective is to increase information and safety on outdoor activities with a focus on Sports Aviation. This network of weather information gathers data from devices located in several airfields and other locations in order to provide the most accurate and localized weather information at all times. Join our network to increase the number of locations covered. Check how on the CONTACT US section.

REALTIME WEATHER NETWORK by Stingray Avionics

JOIN OUR NETWORK